| time (UTC) | temp F | wind direction | speed MPH | gust MPH | rain 1hr in | rain 24hr in | rain mn in | humidity % | barometer mb |
| 20260506082330 | 52 | 66 | 0.0 | 0.0 | 0.00 | 0.00 | 0.00 | 90 | |
| 20260506082127 | 52 | 66 | 0.0 | 0.0 | 0.00 | 0.00 | 0.00 | 90 | |
| 20260506081723 | 52 | 66 | 0.0 | 0.0 | 0.00 | 0.00 | 0.00 | 90 | |
| 20260506081521 | 52 | 66 | 0.0 | 0.0 | 0.00 | 0.00 | 0.00 | 89 | |
| 20260506081319 | 52 | 66 | 0.0 | 0.0 | 0.00 | 0.00 | 0.00 | 90 | |
| 20260506081118 | 52 | 66 | 0.0 | 0.0 | 0.00 | 0.00 | 0.00 | 90 | |
| 20260506080916 | 52 | 66 | 0.0 | 0.0 | 0.00 | 0.00 | 0.00 | 90 | |
| 20260506080654 | 52 | 66 | 0.0 | 0.0 | 0.00 | 0.00 | 0.00 | 90 | |
| 20260506080512 | 52 | 66 | 0.0 | 0.0 | 0.00 | 0.00 | 0.00 | 90 | |
| 20260506080310 | 52 | 66 | 0.0 | 3.0 | 0.00 | 0.00 | 0.00 | 90 | |
| 20260506080108 | 52 | 66 | 0.0 | 3.0 | 0.00 | 0.00 | 0.00 | 90 | |
| 20260506073443 | 52 | 56 | 0.0 | 0.0 | 0.00 | 0.00 | 0.00 | 91 | |
| 20260506073241 | 52 | 56 | 0.0 | 0.0 | 0.00 | 0.00 | 0.00 | 91 | |
| 20260506073039 | 52 | 56 | 0.0 | 0.0 | 0.00 | 0.00 | 0.00 | 91 | |
| 20260506072838 | 52 | 56 | 0.0 | 0.0 | 0.00 | 0.00 | 0.00 | 91 | |
| 20260506072635 | 52 | 56 | 0.0 | 0.0 | 0.00 | 0.00 | 0.00 | 91 | |
| 20260506072230 | 52 | 56 | 0.0 | 0.0 | 0.00 | 0.00 | 0.00 | 91 | |
| 20260506072030 | 52 | 56 | 0.0 | 0.0 | 0.00 | 0.00 | 0.00 | 90 | |
| 20260506071828 | 52 | 56 | 0.0 | 0.0 | 0.00 | 0.00 | 0.00 | 91 | |
| 20260506071626 | 52 | 56 | 0.0 | 0.0 | 0.00 | 0.00 | 0.00 | 91 | |
| 20260506071424 | 52 | 56 | 0.0 | 0.0 | 0.00 | 0.00 | 0.00 | 90 | |
| 20260506071222 | 52 | 56 | 0.0 | 1.0 | 0.00 | 0.00 | 0.00 | 90 | |
| 20260506071020 | 52 | 56 | 0.0 | 1.0 | 0.00 | 0.00 | 0.00 | 90 | |
| 20260506070820 | 52 | 56 | 0.0 | 2.0 | 0.00 | 0.00 | 0.00 | 90 | |
| 20260506070617 | 52 | 61 | 1.0 | 2.0 | 0.00 | 0.00 | 0.00 | 90 | |
| 20260506070415 | 52 | 63 | 0.0 | 2.0 | 0.00 | 0.00 | 0.00 | 90 | |
| 20260506070213 | 52 | 82 | 1.0 | 0.0 | 0.00 | 0.00 | 0.00 | 90 | |
| 20260506062336 | 53 | 8 | 0.0 | 0.0 | 0.00 | 0.00 | 0.00 | 89 | |
| 20260506062135 | 53 | 8 | 0.0 | 0.0 | 0.00 | 0.00 | 0.00 | 89 | |
| 20260506061933 | 53 | 8 | 0.0 | 0.0 | 0.00 | 0.00 | 0.00 | 89 | |
| 20260506061731 | 53 | 8 | 0.0 | 0.0 | 0.00 | 0.00 | 0.00 | 89 | |
| 20260506061529 | 53 | 8 | 0.0 | 0.0 | 0.00 | 0.00 | 0.00 | 89 | |
| 20260506061327 | 52 | 8 | 0.0 | 0.0 | 0.00 | 0.00 | 0.00 | 89 | |
| 20260506061125 | 53 | 8 | 0.0 | 0.0 | 0.00 | 0.00 | 0.00 | 89 | |
| 20260506060923 | 53 | 8 | 0.0 | 0.0 | 0.00 | 0.00 | 0.00 | 89 | |
| 20260506060721 | 53 | 8 | 0.0 | 0.0 | 0.00 | 0.00 | 0.00 | 89 | |
| 20260506060519 | 53 | 8 | 0.0 | 0.0 | 0.00 | 0.00 | 0.00 | 88 | |
| 20260506060115 | 53 | 8 | 0.0 | 0.0 | 0.00 | 0.00 | 0.00 | 88 | |
| 20260506051231 | 55 | 288 | 0.0 | 0.0 | 0.00 | 0.00 | 0.00 | 85 | |
| 20260506051029 | 55 | 288 | 0.0 | 0.0 | 0.00 | 0.00 | 0.00 | 84 | |
| 20260506050826 | 55 | 288 | 0.0 | 0.0 | 0.00 | 0.00 | 0.00 | 85 | |
| 20260506050624 | 55 | 288 | 0.0 | 2.0 | 0.00 | 0.00 | 0.00 | 85 | |
| 20260506050422 | 55 | 288 | 0.0 | 2.0 | 0.00 | 0.00 | 0.00 | 85 | |
| 20260506045009 | 55 | 289 | 0.0 | 1.0 | 0.00 | 0.00 | 0.00 | 82 | |
| 20260506044807 | 55 | 289 | 0.0 | 2.0 | 0.00 | 0.00 | 0.00 | 82 | |
| 20260506044605 | 55 | 289 | 0.0 | 2.0 | 0.00 | 0.00 | 0.00 | 82 | |
| 20260506044201 | 56 | 289 | 1.0 | 3.0 | 0.00 | 0.00 | 0.00 | 83 | |
| 20260506043957 | 56 | 282 | 1.0 | 3.0 | 0.00 | 0.00 | 0.00 | 82 | |
| 20260506043758 | 56 | 292 | 1.0 | 2.0 | 0.00 | 0.00 | 0.00 | 82 | |
| 20260506043354 | 56 | 293 | 1.0 | 2.0 | 0.00 | 0.00 | 0.00 | 82 | |
| 20260506043151 | 56 | 275 | 0.0 | 2.0 | 0.00 | 0.00 | 0.00 | 82 | |
| 20260506042950 | 56 | 289 | 0.0 | 2.0 | 0.00 | 0.00 | 0.00 | 82 | |
| 20260506042746 | 56 | 288 | 1.0 | 2.0 | 0.00 | 0.00 | 0.00 | 82 | |
| 20260506042546 | 56 | 286 | 1.0 | 2.0 | 0.00 | 0.00 | 0.00 | 81 | |
| 20260506042344 | 56 | 281 | 1.0 | 2.0 | 0.00 | 0.00 | 0.00 | 81 | |
| 20260506042142 | 57 | 279 | 1.0 | 0.0 | 0.00 | 0.00 | 0.00 | 81 | |
| 20260506041738 | 56 | 265 | 0.0 | 0.0 | 0.00 | 0.00 | 0.00 | 81 | |
| 20260506041536 | 57 | 265 | 0.0 | 0.0 | 0.00 | 0.00 | 0.00 | 81 | |
| 20260506041335 | 57 | 265 | 0.0 | 0.0 | 0.00 | 0.00 | 0.00 | 80 | |
| 20260506041133 | 57 | 265 | 0.0 | 0.0 | 0.00 | 0.00 | 0.00 | 80 | |
| 20260506035921 | 57 | 265 | 0.0 | 0.0 | 0.00 | 0.00 | 0.00 | 79 | |
| 20260506035720 | 57 | 265 | 0.0 | 0.0 | 0.00 | 0.00 | 0.00 | 79 | |
| 20260506035518 | 57 | 265 | 0.0 | 0.0 | 0.00 | 0.00 | 0.00 | 79 | |
| 20260506035315 | 57 | 265 | 0.0 | 0.0 | 0.00 | 0.00 | 0.00 | 79 | |
| 20260506035114 | 57 | 265 | 0.0 | 0.0 | 0.00 | 0.00 | 0.00 | 79 | |
| 20260506034912 | 58 | 265 | 0.0 | 0.0 | 0.00 | 0.00 | 0.00 | 78 | |
| 20260506034710 | 58 | 265 | 0.0 | 0.0 | 0.00 | 0.00 | 0.00 | 78 | |
| 20260506034508 | 58 | 265 | 0.0 | 0.0 | 0.00 | 0.00 | 0.00 | 77 | |
| 20260506034306 | 58 | 265 | 0.0 | 0.0 | 0.00 | 0.00 | 0.00 | 77 | |
| 20260506034104 | 58 | 265 | 0.0 | 0.0 | 0.00 | 0.00 | 0.00 | 77 | |
| 20260506033902 | 58 | 265 | 0.0 | 0.0 | 0.00 | 0.00 | 0.00 | 77 | |
| 20260506033700 | 58 | 265 | 0.0 | 0.0 | 0.00 | 0.00 | 0.00 | 76 | |
| 20260506033457 | 58 | 265 | 0.0 | 0.0 | 0.00 | 0.00 | 0.00 | 76 | |
| 20260506033256 | 59 | 265 | 0.0 | 0.0 | 0.00 | 0.00 | 0.00 | 76 | |
| 20260506033053 | 59 | 265 | 0.0 | 0.0 | 0.00 | 0.00 | 0.00 | 76 | |
| 20260506032852 | 59 | 265 | 0.0 | 0.0 | 0.00 | 0.00 | 0.00 | 76 | |
| 20260506032651 | 59 | 265 | 0.0 | 0.0 | 0.00 | 0.00 | 0.00 | 76 | |
| 20260506032449 | 59 | 265 | 0.0 | 0.0 | 0.00 | 0.00 | 0.00 | 76 | |
| 20260506032247 | 59 | 265 | 0.0 | 0.0 | 0.00 | 0.00 | 0.00 | 76 | |
| 20260506032045 | 59 | 265 | 0.0 | 0.0 | 0.00 | 0.00 | 0.00 | 76 | |
| 20260506031843 | 59 | 265 | 0.0 | 0.0 | 0.00 | 0.00 | 0.00 | 76 | |
| 20260506031641 | 59 | 265 | 0.0 | 1.0 | 0.00 | 0.00 | 0.00 | 76 | |
| 20260506031439 | 59 | 265 | 0.0 | 1.0 | 0.00 | 0.00 | 0.00 | 76 | |
| 20260506031036 | 59 | 275 | 1.0 | 1.0 | 0.00 | 0.00 | 0.00 | 76 | |
| 20260506030833 | 59 | 279 | 0.0 | 1.0 | 0.00 | 0.00 | 0.00 | 76 | |
| 20260506030631 | 59 | 270 | 0.0 | 1.0 | 0.00 | 0.00 | 0.00 | 76 | |
| 20260506030228 | 59 | 275 | 1.0 | 2.0 | 0.00 | 0.00 | 0.00 | 76 | |
| 20260506030026 | 59 | 272 | 1.0 | 2.0 | 0.00 | 0.00 | 0.00 | 75 | |
| 20260506025824 | 59 | 254 | 0.0 | 2.0 | 0.00 | 0.00 | 0.00 | 75 | |
| 20260506025622 | 59 | 261 | 1.0 | 1.0 | 0.00 | 0.00 | 0.00 | 75 | |
| 20260506025420 | 59 | 267 | 0.0 | 1.0 | 0.00 | 0.00 | 0.00 | 75 | |
| 20260506025218 | 60 | 217 | 0.0 | 0.0 | 0.00 | 0.00 | 0.00 | 75 | |
| 20260506025016 | 60 | 217 | 0.0 | 0.0 | 0.00 | 0.00 | 0.00 | 74 | |
| 20260506024815 | 60 | 217 | 0.0 | 0.0 | 0.00 | 0.00 | 0.00 | 74 | |
| 20260506024613 | 60 | 217 | 0.0 | 0.0 | 0.00 | 0.00 | 0.00 | 74 | |
| 20260506024410 | 60 | 217 | 0.0 | 0.0 | 0.00 | 0.00 | 0.00 | 73 | |
| 20260506024207 | 60 | 217 | 0.0 | 1.0 | 0.00 | 0.00 | 0.00 | 73 | |
| 20260506024007 | 60 | 217 | 0.0 | 1.0 | 0.00 | 0.00 | 0.00 | 73 | |
| 20260506023805 | 60 | 217 | 0.0 | 2.0 | 0.00 | 0.00 | 0.00 | 73 | |
| 20260506023603 | 60 | 180 | 0.0 | 2.0 | 0.00 | 0.00 | 0.00 | 73 | |
| 20260506023200 | 61 | 180 | 0.0 | 2.0 | 0.00 | 0.00 | 0.00 | 72 | |
| 20260506022957 | 61 | 264 | 0.0 | 2.0 | 0.00 | 0.00 | 0.00 | 72 | |
| 20260506022755 | 61 | 264 | 0.0 | 5.0 | 0.00 | 0.00 | 0.00 | 73 | |
| 20260506022553 | 61 | 268 | 0.0 | 5.0 | 0.00 | 0.00 | 0.00 | 72 | |
| 20260506022352 | 61 | 275 | 0.0 | 5.0 | 0.00 | 0.00 | 0.00 | 73 | |
| 20260506022150 | 61 | 279 | 1.0 | 3.0 | 0.00 | 0.00 | 0.00 | 73 | |
| 20260506021948 | 61 | 270 | 4.0 | 3.0 | 0.00 | 0.00 | 0.00 | 72 | |
| 20260506021746 | 61 | 278 | 2.0 | 3.0 | 0.00 | 0.00 | 0.00 | 72 | |
| 20260506021544 | 61 | 279 | 2.0 | 3.0 | 0.00 | 0.00 | 0.00 | 72 | |
| 20260506021342 | 61 | 274 | 0.0 | 3.0 | 0.00 | 0.00 | 0.00 | 71 | |
| 20260506021140 | 61 | 274 | 1.0 | 4.0 | 0.00 | 0.00 | 0.00 | 72 | |
| 20260506020938 | 61 | 293 | 2.0 | 4.0 | 0.00 | 0.00 | 0.00 | 72 | |
| 20260506020736 | 61 | 284 | 4.0 | 5.0 | 0.00 | 0.00 | 0.00 | 72 | |
| 20260506020535 | 61 | 279 | 1.0 | 5.0 | 0.00 | 0.00 | 0.00 | 72 | |
| 20260506020333 | 61 | 258 | 0.0 | 5.0 | 0.00 | 0.00 | 0.00 | 71 | |
| 20260506020131 | 61 | 288 | 3.0 | 6.0 | 0.00 | 0.00 | 0.00 | 72 | |
| 20260506015929 | 61 | 293 | 3.0 | 6.0 | 0.00 | 0.00 | 0.00 | 71 | |
| 20260506015727 | 61 | 288 | 3.0 | 5.0 | 0.00 | 0.00 | 0.00 | 71 | |
| 20260506015525 | 61 | 284 | 3.0 | 5.0 | 0.00 | 0.00 | 0.00 | 72 | |
| 20260506015323 | 61 | 271 | 3.0 | 5.0 | 0.00 | 0.00 | 0.00 | 72 | |
| 20260506015121 | 61 | 241 | 0.0 | 5.0 | 0.00 | 0.00 | 0.00 | 72 | |
| 20260506014919 | 61 | 219 | 0.0 | 5.0 | 0.00 | 0.00 | 0.00 | 72 | |
| 20260506014716 | 62 | 258 | 2.0 | 6.0 | 0.00 | 0.00 | 0.00 | 72 | |
| 20260506014314 | 62 | 293 | 3.0 | 8.0 | 0.00 | 0.00 | 0.00 | 71 | |
| 20260506014112 | 62 | 300 | 1.0 | 8.0 | 0.00 | 0.00 | 0.00 | 71 | |
| 20260506013910 | 62 | 296 | 1.0 | 8.0 | 0.00 | 0.00 | 0.00 | 70 | |
| 20260506013506 | 62 | 199 | 0.0 | 7.0 | 0.00 | 0.00 | 0.00 | 70 | |
| 20260506013302 | 63 | 191 | 0.0 | 5.0 | 0.00 | 0.00 | 0.00 | 70 | |
| 20260506012900 | 63 | 267 | 0.0 | 5.0 | 0.00 | 0.00 | 0.00 | 69 | |
| 20260506012658 | 63 | 278 | 1.0 | 7.0 | 0.00 | 0.00 | 0.00 | 69 | |
| 20260506012456 | 63 | 229 | 0.0 | 7.0 | 0.00 | 0.00 | 0.00 | 69 | |
| 20260506012254 | 63 | 299 | 1.0 | 7.0 | 0.00 | 0.00 | 0.00 | 69 | |
| 20260506012052 | 63 | 267 | 0.0 | 7.0 | 0.00 | 0.00 | 0.00 | 69 | |
| 20260506011850 | 63 | 230 | 3.0 | 7.0 | 0.00 | 0.00 | 0.00 | 69 | |
| 20260506011447 | 63 | 267 | 6.0 | 8.0 | 0.00 | 0.00 | 0.00 | 68 | |
| 20260506011245 | 63 | 262 | 5.0 | 8.0 | 0.00 | 0.00 | 0.00 | 68 | |
| 20260506011043 | 63 | 270 | 2.0 | 8.0 | 0.00 | 0.00 | 0.00 | 68 | |
| 20260506010841 | 63 | 213 | 0.0 | 8.0 | 0.00 | 0.00 | 0.00 | 68 | |
| 20260506010639 | 63 | 240 | 4.0 | 8.0 | 0.00 | 0.00 | 0.00 | 68 | |
| 20260506010437 | 63 | 241 | 1.0 | 8.0 | 0.00 | 0.00 | 0.00 | 69 | |
| 20260506010235 | 63 | 278 | 2.0 | 7.0 | 0.00 | 0.00 | 0.00 | 69 | |
| 20260506010033 | 63 | 268 | 5.0 | 7.0 | 0.00 | 0.00 | 0.00 | 69 | |
| 20260506005831 | 63 | 288 | 5.0 | 7.0 | 0.00 | 0.00 | 0.00 | 69 | |
| 20260506005629 | 63 | 260 | 4.0 | 10.0 | 0.00 | 0.00 | 0.00 | 68 | |
| 20260506005427 | 63 | 300 | 3.0 | 10.0 | 0.00 | 0.00 | 0.00 | 69 | |
| 20260506005226 | 63 | 270 | 6.0 | 13.0 | 0.00 | 0.00 | 0.00 | 68 | |
| 20260506005024 | 63 | 285 | 6.0 | 13.0 | 0.00 | 0.00 | 0.00 | 67 | |
| 20260506004822 | 63 | 254 | 10.0 | 11.0 | 0.00 | 0.00 | 0.00 | 66 | |
| 20260506004416 | 64 | 265 | 1.0 | 11.0 | 0.00 | 0.00 | 0.00 | 65 | |
| 20260506004215 | 64 | 274 | 2.0 | 12.0 | 0.00 | 0.00 | 0.00 | 65 | |
| 20260506004014 | 64 | 255 | 9.0 | 12.0 | 0.00 | 0.00 | 0.00 | 63 | |
| 20260506003811 | 64 | 239 | 8.0 | 10.0 | 0.00 | 0.00 | 0.00 | 63 | |
| 20260506003611 | 65 | 278 | 2.0 | 10.0 | 0.00 | 0.00 | 0.00 | 63 | |
| 20260506003207 | 64 | 247 | 4.0 | 13.0 | 0.00 | 0.00 | 0.00 | 65 | |
| 20260506003003 | 64 | 278 | 8.0 | 13.0 | 0.00 | 0.00 | 0.00 | 65 | |
| 20260506002803 | 64 | 258 | 11.0 | 15.0 | 0.00 | 0.00 | 0.00 | 63 | |
| 20260506002601 | 65 | 258 | 6.0 | 15.0 | 0.00 | 0.00 | 0.00 | 62 | |
| 20260506002357 | 65 | 277 | 8.0 | 15.0 | 0.00 | 0.00 | 0.00 | 61 | |
| 20260506002157 | 66 | 271 | 9.0 | 11.0 | 0.00 | 0.00 | 0.00 | 61 | |
| 20260506001954 | 66 | 227 | 3.0 | 11.0 | 0.00 | 0.00 | 0.00 | 61 | |
| 20260506001753 | 66 | 277 | 4.0 | 11.0 | 0.00 | 0.00 | 0.00 | 61 | |
| 20260506001551 | 65 | 254 | 1.0 | 11.0 | 0.00 | 0.00 | 0.00 | 62 | |
| 20260506001350 | 65 | 275 | 3.0 | 11.0 | 0.00 | 0.00 | 0.00 | 62 | |
| 20260506001148 | 65 | 271 | 5.0 | 10.0 | 0.00 | 0.00 | 0.00 | 63 | |
| 20260506000946 | 65 | 296 | 2.0 | 10.0 | 0.00 | 0.00 | 0.00 | 63 | |
| 20260506000744 | 64 | 267 | 5.0 | 12.0 | 0.00 | 0.00 | 0.00 | 63 | |
| 20260506000542 | 64 | 281 | 1.0 | 12.0 | 0.00 | 0.00 | 0.00 | 62 | |
| 20260506000340 | 64 | 260 | 7.0 | 12.0 | 0.00 | 0.00 | 0.00 | 62 | |
| 20260506000139 | 64 | 237 | 2.0 | 9.0 | 0.00 | 0.00 | 0.00 | 61 | |
| 20260505235936 | 65 | 277 | 2.0 | 9.0 | 0.00 | 0.00 | 0.00 | 61 | |
| 20260505235531 | 65 | 264 | 6.0 | 8.0 | 0.00 | 0.00 | 0.00 | 60 | |
| 20260505235331 | 65 | 156 | 0.0 | 8.0 | 0.00 | 0.00 | 0.00 | 60 | |
| 20260505234927 | 65 | 258 | 7.0 | 12.0 | 0.00 | 0.00 | 0.00 | 59 | |
| 20260505234725 | 65 | 277 | 3.0 | 11.0 | 0.00 | 0.00 | 0.00 | 58 | |
| 20260505234523 | 65 | 271 | 9.0 | 11.0 | 0.00 | 0.00 | 0.00 | 58 | |
| 20260505234117 | 65 | 257 | 7.0 | 11.0 | 0.00 | 0.00 | 0.00 | 58 | |
| 20260505233916 | 65 | 270 | 1.0 | 11.0 | 0.00 | 0.00 | 0.00 | 58 | |
| 20260505233715 | 65 | 258 | 9.0 | 11.0 | 0.00 | 0.00 | 0.00 | 58 | |
| 20260505233513 | 65 | 277 | 6.0 | 11.0 | 0.00 | 0.00 | 0.00 | 58 | |
| 20260505233310 | 65 | 264 | 6.0 | 12.0 | 0.00 | 0.00 | 0.00 | 58 | |
| 20260505233110 | 65 | 258 | 7.0 | 12.0 | 0.00 | 0.00 | 0.00 | 58 | |
| 20260505232305 | 65 | 258 | 6.0 | 15.0 | 0.00 | 0.00 | 0.00 | 56 | |
| 20260505232101 | 66 | 260 | 6.0 | 15.0 | 0.00 | 0.00 | 0.00 | 55 | |
| 20260505231858 | 66 | 288 | 2.0 | 15.0 | 0.00 | 0.00 | 0.00 | 55 | |
| 20260505231657 | 67 | 268 | 8.0 | 9.0 | 0.00 | 0.00 | 0.00 | 55 | |
| 20260505231455 | 66 | 281 | 2.0 | 9.0 | 0.00 | 0.00 | 0.00 | 56 | |
| 20260505231251 | 66 | 257 | 6.0 | 8.0 | 0.00 | 0.00 | 0.00 | 57 | |
| 20260505231051 | 66 | 268 | 8.0 | 8.0 | 0.00 | 0.00 | 0.00 | 58 | |
| 20260505230849 | 66 | 163 | 2.0 | 8.0 | 0.00 | 0.00 | 0.00 | 57 | |
| 20260505230646 | 66 | 251 | 0.0 | 13.0 | 0.00 | 0.00 | 0.00 | 56 | |
| 20260505230445 | 66 | 296 | 0.0 | 13.0 | 0.00 | 0.00 | 0.00 | 56 | |
| 20260505230243 | 66 | 182 | 0.0 | 16.0 | 0.00 | 0.00 | 0.00 | 57 | |
| 20260505225839 | 65 | 244 | 8.0 | 16.0 | 0.00 | 0.00 | 0.00 | 56 | |
| 20260505225436 | 67 | 278 | 1.0 | 10.0 | 0.00 | 0.00 | 0.00 | 54 | |
| 20260505225234 | 67 | 254 | 9.0 | 11.0 | 0.00 | 0.00 | 0.00 | 55 | |
| 20260505225032 | 66 | 277 | 4.0 | 11.0 | 0.00 | 0.00 | 0.00 | 55 | |
| 20260505224830 | 66 | 196 | 1.0 | 11.0 | 0.00 | 0.00 | 0.00 | 56 | |
| 20260505224628 | 66 | 244 | 5.0 | 18.0 | 0.00 | 0.00 | 0.00 | 56 | |
| 20260505224426 | 65 | 324 | 4.0 | 18.0 | 0.00 | 0.00 | 0.00 | 56 | |
| 20260505224224 | 65 | 262 | 8.0 | 13.0 | 0.00 | 0.00 | 0.00 | 55 | |
| 20260505224022 | 65 | 220 | 6.0 | 13.0 | 0.00 | 0.00 | 0.00 | 54 | |
| 20260505223818 | 67 | 281 | 7.0 | 14.0 | 0.00 | 0.00 | 0.00 | 54 | |
| 20260505223617 | 67 | 196 | 7.0 | 14.0 | 0.00 | 0.00 | 0.00 | 52 | |
| 20260505223416 | 68 | 279 | 3.0 | 14.0 | 0.00 | 0.00 | 0.00 | 54 | |
| 20260505223215 | 67 | 281 | 8.0 | 15.0 | 0.00 | 0.00 | 0.00 | 53 | |
| 20260505223011 | 68 | 264 | 5.0 | 15.0 | 0.00 | 0.00 | 0.00 | 53 | |
| 20260505222811 | 67 | 255 | 5.0 | 15.0 | 0.00 | 0.00 | 0.00 | 53 | |
| 20260505222609 | 68 | 250 | 6.0 | 15.0 | 0.00 | 0.00 | 0.00 | 53 | |
| 20260505222407 | 68 | 261 | 8.0 | 15.0 | 0.00 | 0.00 | 0.00 | 55 | |
| 20260505222205 | 67 | 271 | 3.0 | 14.0 | 0.00 | 0.00 | 0.00 | 55 | |
| 20260505222001 | 67 | 257 | 10.0 | 14.0 | 0.00 | 0.00 | 0.00 | 53 | |
| 20260505221801 | 68 | 277 | 14.0 | 14.0 | 0.00 | 0.00 | 0.00 | 53 | |
| 20260505221600 | 68 | 160 | 3.0 | 14.0 | 0.00 | 0.00 | 0.00 | 54 | |
| 20260505221358 | 68 | 274 | 5.0 | 14.0 | 0.00 | 0.00 | 0.00 | 54 | |
| 20260505221154 | 67 | 258 | 2.0 | 14.0 | 0.00 | 0.00 | 0.00 | 55 | |
| 20260505220953 | 67 | 237 | 6.0 | 14.0 | 0.00 | 0.00 | 0.00 | 54 | |
| 20260505220752 | 67 | 270 | 9.0 | 14.0 | 0.00 | 0.00 | 0.00 | 53 | |
| 20260505220550 | 68 | 264 | 3.0 | 14.0 | 0.00 | 0.00 | 0.00 | 54 | |
| 20260505220146 | 67 | 203 | 3.0 | 16.0 | 0.00 | 0.00 | 0.00 | 54 | |
| 20260505215944 | 67 | 270 | 10.0 | 16.0 | 0.00 | 0.00 | 0.00 | 53 | |
| 20260505215742 | 67 | 268 | 7.0 | 17.0 | 0.00 | 0.00 | 0.00 | 54 | |
| 20260505215540 | 67 | 253 | 11.0 | 17.0 | 0.00 | 0.00 | 0.00 | 55 | |
| 20260505215339 | 66 | 254 | 7.0 | 17.0 | 0.00 | 0.00 | 0.00 | 55 | |
| 20260505215136 | 67 | 277 | 5.0 | 14.0 | 0.00 | 0.00 | 0.00 | 54 | |
| 20260505214935 | 67 | 250 | 9.0 | 14.0 | 0.00 | 0.00 | 0.00 | 53 | |
| 20260505214733 | 68 | 258 | 12.0 | 11.0 | 0.00 | 0.00 | 0.00 | 50 | |
| 20260505214329 | 69 | 142 | 2.0 | 11.0 | 0.00 | 0.00 | 0.00 | 49 | |
| 20260505214127 | 69 | 247 | 8.0 | 14.0 | 0.00 | 0.00 | 0.00 | 49 | |
| 20260505213925 | 70 | 92 | 0.0 | 14.0 | 0.00 | 0.00 | 0.00 | 48 | |
| 20260505213723 | 70 | 215 | 10.0 | 12.0 | 0.00 | 0.00 | 0.00 | 48 | |
| 20260505213521 | 70 | 244 | 2.0 | 12.0 | 0.00 | 0.00 | 0.00 | 45 | |
| 20260505213317 | 70 | 247 | 5.0 | 18.0 | 0.00 | 0.00 | 0.00 | 47 | |
| 20260505213117 | 69 | 258 | 7.0 | 18.0 | 0.00 | 0.00 | 0.00 | 48 | |
| 20260505212915 | 69 | 244 | 3.0 | 18.0 | 0.00 | 0.00 | 0.00 | 47 | |
| 20260505212714 | 69 | 279 | 5.0 | 14.0 | 0.00 | 0.00 | 0.00 | 48 | |
| 20260505212511 | 69 | 237 | 7.0 | 14.0 | 0.00 | 0.00 | 0.00 | 49 | |
| 20260505212309 | 69 | 274 | 11.0 | 10.0 | 0.00 | 0.00 | 0.00 | 47 | |
| 20260505212107 | 69 | 233 | 0.0 | 10.0 | 0.00 | 0.00 | 0.00 | 48 | |
| 20260505211704 | 68 | 275 | 2.0 | 13.0 | 0.00 | 0.00 | 0.00 | 51 | |
| 20260505211502 | 67 | 296 | 3.0 | 13.0 | 0.00 | 0.00 | 0.00 | 50 | |
| 20260505211300 | 67 | 331 | 2.0 | 12.0 | 0.00 | 0.00 | 0.00 | 53 | |
| 20260505211058 | 66 | 267 | 9.0 | 12.0 | 0.00 | 0.00 | 0.00 | 54 | |
| 20260505210856 | 66 | 299 | 4.0 | 12.0 | 0.00 | 0.00 | 0.00 | 53 | |
| 20260505210654 | 66 | 268 | 7.0 | 12.0 | 0.00 | 0.00 | 0.00 | 54 | |
| 20260505210452 | 66 | 232 | 8.0 | 12.0 | 0.00 | 0.00 | 0.00 | 54 | |
| 20260505210250 | 66 | 253 | 6.0 | 11.0 | 0.00 | 0.00 | 0.00 | 55 | |
| 20260505205846 | 66 | 258 | 5.0 | 11.0 | 0.00 | 0.00 | 0.00 | 54 | |
| 20260505205643 | 66 | 275 | 6.0 | 9.0 | 0.00 | 0.00 | 0.00 | 55 | |
| 20260505205443 | 66 | 225 | 1.0 | 9.0 | 0.00 | 0.00 | 0.00 | 54 | |
| 20260505205241 | 66 | 279 | 3.0 | 11.0 | 0.00 | 0.00 | 0.00 | 56 | |
| 20260505205039 | 66 | 281 | 3.0 | 11.0 | 0.00 | 0.00 | 0.00 | 56 | |
| 20260505204837 | 65 | 288 | 7.0 | 11.0 | 0.00 | 0.00 | 0.00 | 56 | |
| 20260505204634 | 65 | 257 | 7.0 | 18.0 | 0.00 | 0.00 | 0.00 | 56 | |
| 20260505204431 | 65 | 147 | 0.0 | 18.0 | 0.00 | 0.00 | 0.00 | 57 | |
| 20260505204029 | 65 | 264 | 10.0 | 13.0 | 0.00 | 0.00 | 0.00 | 57 | |
| 20260505203827 | 65 | 254 | 8.0 | 13.0 | 0.00 | 0.00 | 0.00 | 57 | |
| 20260505203423 | 65 | 258 | 9.0 | 11.0 | 0.00 | 0.00 | 0.00 | 56 | |
| 20260505203222 | 66 | 264 | 6.0 | 10.0 | 0.00 | 0.00 | 0.00 | 56 | |
| 20260505203020 | 65 | 243 | 0.0 | 10.0 | 0.00 | 0.00 | 0.00 | 56 | |
| 20260505202816 | 65 | 236 | 3.0 | 14.0 | 0.00 | 0.00 | 0.00 | 56 | |
| 20260505202616 | 65 | 267 | 2.0 | 14.0 | 0.00 | 0.00 | 0.00 | 56 | |
| 20260505202414 | 65 | 262 | 6.0 | 14.0 | 0.00 | 0.00 | 0.00 | 57 | |
| 20260505202212 | 65 | 264 | 8.0 | 15.0 | 0.00 | 0.00 | 0.00 | 57 | |
| 20260505201808 | 65 | 265 | 10.0 | 15.0 | 0.00 | 0.00 | 0.00 | 56 | |
| 20260505201606 | 65 | 270 | 7.0 | 15.0 | 0.00 | 0.00 | 0.00 | 56 | |
| 20260505200959 | 65 | 262 | 12.0 | 14.0 | 0.00 | 0.00 | 0.00 | 58 | |
| 20260505200557 | 65 | 243 | 6.0 | 11.0 | 0.00 | 0.00 | 0.00 | 58 | |
| 20260505195949 | 65 | 289 | 5.0 | 11.0 | 0.00 | 0.00 | 0.00 | 56 | |
| 20260505195749 | 65 | 292 | 6.0 | 12.0 | 0.00 | 0.00 | 0.00 | 56 | |
| 20260505195548 | 65 | 278 | 7.0 | 12.0 | 0.00 | 0.00 | 0.00 | 56 | |
| 20260505195345 | 65 | 255 | 7.0 | 12.0 | 0.00 | 0.00 | 0.00 | 55 | |
| 20260505195148 | 65 | 262 | 8.0 | 14.0 | 0.00 | 0.00 | 0.00 | 56 | |
| 20260505194740 | 65 | 279 | 9.0 | 16.0 | 0.00 | 0.00 | 0.00 | 56 | |
| 20260505194538 | 65 | 309 | 4.0 | 16.0 | 0.00 | 0.00 | 0.00 | 55 | |
| 20260505194336 | 66 | 270 | 9.0 | 16.0 | 0.00 | 0.00 | 0.00 | 54 | |
| 20260505194134 | 65 | 270 | 7.0 | 15.0 | 0.00 | 0.00 | 0.00 | 55 | |
| 20260505193933 | 65 | 271 | 9.0 | 15.0 | 0.00 | 0.00 | 0.00 | 54 | |
| 20260505193731 | 67 | 255 | 9.0 | 15.0 | 0.00 | 0.00 | 0.00 | 54 | |
| 20260505193529 | 67 | 271 | 8.0 | 15.0 | 0.00 | 0.00 | 0.00 | 55 | |
| 20260505193327 | 66 | 270 | 7.0 | 15.0 | 0.00 | 0.00 | 0.00 | 56 | |
| 20260505193125 | 66 | 260 | 9.0 | 13.0 | 0.00 | 0.00 | 0.00 | 58 | |
| 20260505192519 | 65 | 254 | 11.0 | 14.0 | 0.00 | 0.00 | 0.00 | 56 | |
| 20260505192317 | 66 | 267 | 9.0 | 11.0 | 0.00 | 0.00 | 0.00 | 55 | |
| 20260505192115 | 66 | 277 | 10.0 | 11.0 | 0.00 | 0.00 | 0.00 | 56 | |
| 20260505191913 | 66 | 274 | 8.0 | 11.0 | 0.00 | 0.00 | 0.00 | 56 | |
| 20260505191712 | 65 | 261 | 7.0 | 12.0 | 0.00 | 0.00 | 0.00 | 56 | |
| 20260505191308 | 65 | 243 | 8.0 | 11.0 | 0.00 | 0.00 | 0.00 | 57 | |
| 20260505191105 | 65 | 268 | 7.0 | 11.0 | 0.00 | 0.00 | 0.00 | 57 | |
| 20260505190903 | 64 | 296 | 6.0 | 11.0 | 0.00 | 0.00 | 0.00 | 56 | |
| 20260505190702 | 65 | 296 | 7.0 | 12.0 | 0.00 | 0.00 | 0.00 | 55 | |
| 20260505190458 | 65 | 267 | 8.0 | 12.0 | 0.00 | 0.00 | 0.00 | 54 | |
| 20260505190257 | 65 | 272 | 7.0 | 10.0 | 0.00 | 0.00 | 0.00 | 53 | |
| 20260505190056 | 65 | 264 | 11.0 | 10.0 | 0.00 | 0.00 | 0.00 | 54 | |
| 20260505185854 | 65 | 268 | 5.0 | 10.0 | 0.00 | 0.00 | 0.00 | 54 | |
| 20260505185652 | 65 | 277 | 7.0 | 13.0 | 0.00 | 0.00 | 0.00 | 55 | |
| 20260505185450 | 65 | 275 | 6.0 | 13.0 | 0.00 | 0.00 | 0.00 | 55 | |
| 20260505185248 | 65 | 268 | 6.0 | 13.0 | 0.00 | 0.00 | 0.00 | 55 | |
| 20260505185047 | 66 | 292 | 8.0 | 13.0 | 0.00 | 0.00 | 0.00 | 55 | |
| 20260505184642 | 65 | 282 | 8.0 | 10.0 | 0.00 | 0.00 | 0.00 | 53 | |
| 20260505184441 | 66 | 260 | 10.0 | 10.0 | 0.00 | 0.00 | 0.00 | 53 | |
| 20260505184239 | 66 | 261 | 8.0 | 13.0 | 0.00 | 0.00 | 0.00 | 55 | |
| 20260505184037 | 66 | 232 | 3.0 | 13.0 | 0.00 | 0.00 | 0.00 | 53 | |
| 20260505183835 | 66 | 316 | 2.0 | 13.0 | 0.00 | 0.00 | 0.00 | 51 | |
| 20260505183633 | 67 | 264 | 9.0 | 13.0 | 0.00 | 0.00 | 0.00 | 51 | |
| 20260505183432 | 66 | 264 | 8.0 | 13.0 | 0.00 | 0.00 | 0.00 | 53 | |
| 20260505183230 | 66 | 275 | 7.0 | 11.0 | 0.00 | 0.00 | 0.00 | 53 | |
| 20260505182826 | 65 | 279 | 2.0 | 11.0 | 0.00 | 0.00 | 0.00 | 52 | |
| 20260505182624 | 65 | 258 | 9.0 | 10.0 | 0.00 | 0.00 | 0.00 | 53 | |
| 20260505182422 | 65 | 261 | 7.0 | 10.0 | 0.00 | 0.00 | 0.00 | 56 | |
| 20260505182220 | 65 | 277 | 8.0 | 6.0 | 0.00 | 0.00 | 0.00 | 54 | |
| 20260505182018 | 65 | 296 | 7.0 | 6.0 | 0.00 | 0.00 | 0.00 | 55 | |
| 20260505181817 | 66 | 312 | 4.0 | 10.0 | 0.00 | 0.00 | 0.00 | 56 | |
| 20260505181413 | 65 | 278 | 0.0 | 10.0 | 0.00 | 0.00 | 0.00 | 56 | |
| 20260505181211 | 65 | 260 | 2.0 | 18.0 | 0.00 | 0.00 | 0.00 | 56 | |
| 20260505181009 | 64 | 275 | 4.0 | 18.0 | 0.00 | 0.00 | 0.00 | 57 | |
| 20260505180807 | 65 | 292 | 5.0 | 8.0 | 0.00 | 0.00 | 0.00 | 56 | |
| 20260505180603 | 65 | 288 | 3.0 | 8.0 | 0.00 | 0.00 | 0.00 | 56 | |
| 20260505180403 | 65 | 284 | 9.0 | 8.0 | 0.00 | 0.00 | 0.00 | 56 | |
| 20260505180201 | 65 | 320 | 3.0 | 6.0 | 0.00 | 0.00 | 0.00 | 55 | |
| 20260505175959 | 66 | 275 | 6.0 | 6.0 | 0.00 | 0.00 | 0.00 | 55 | |
| 20260505175757 | 66 | 191 | 1.0 | 10.0 | 0.00 | 0.00 | 0.00 | 56 | |
| 20260505175555 | 65 | 255 | 3.0 | 10.0 | 0.00 | 0.00 | 0.00 | 56 | |
| 20260505175354 | 65 | 229 | 2.0 | 10.0 | 0.00 | 0.00 | 0.00 | 56 | |
| 20260505174950 | 65 | 229 | 4.0 | 7.0 | 0.00 | 0.00 | 0.00 | 53 | |
| 20260505174748 | 66 | 165 | 3.0 | 7.0 | 0.00 | 0.00 | 0.00 | 53 | |
| 20260505174546 | 66 | 187 | 4.0 | 7.0 | 0.00 | 0.00 | 0.00 | 55 | |
| 20260505174142 | 65 | 164 | 3.0 | 8.0 | 0.00 | 0.00 | 0.00 | 59 | |
| 20260505173940 | 64 | 188 | 2.0 | 8.0 | 0.00 | 0.00 | 0.00 | 58 | |
| 20260505173738 | 64 | 213 | 2.0 | 7.0 | 0.00 | 0.00 | 0.00 | 58 | |
| 20260505173536 | 65 | 219 | 4.0 | 7.0 | 0.00 | 0.00 | 0.00 | 57 | |
| 20260505173133 | 65 | 70 | 0.0 | 8.0 | 0.00 | 0.00 | 0.00 | 60 | |
| 20260505172527 | 64 | 156 | 3.0 | 5.0 | 0.00 | 0.00 | 0.00 | 59 | |
| 20260505172324 | 64 | 229 | 2.0 | 5.0 | 0.00 | 0.00 | 0.00 | 60 | |
| 20260505171921 | 63 | 73 | 0.0 | 1.0 | 0.00 | 0.00 | 0.00 | 61 | |
| 20260505171719 | 63 | 73 | 0.0 | 6.0 | 0.00 | 0.00 | 0.00 | 62 | |
| 20260505171517 | 62 | 73 | 0.0 | 6.0 | 0.00 | 0.00 | 0.00 | 63 | |
| 20260505171114 | 62 | 208 | 0.0 | 9.0 | 0.00 | 0.00 | 0.00 | 63 | |
| 20260505170912 | 61 | 212 | 0.0 | 9.0 | 0.00 | 0.00 | 0.00 | 63 | |
| 20260505170710 | 61 | 265 | 0.0 | 6.0 | 0.00 | 0.00 | 0.00 | 63 | |
| 20260505170507 | 61 | 180 | 0.0 | 6.0 | 0.00 | 0.00 | 0.00 | 63 | |
| 20260505170306 | 61 | 257 | 2.0 | 7.0 | 0.00 | 0.00 | 0.00 | 64 | |
| 20260505170104 | 61 | 295 | 6.0 | 7.0 | 0.00 | 0.00 | 0.00 | 63 | |
| 20260505165902 | 61 | 302 | 5.0 | 7.0 | 0.00 | 0.00 | 0.00 | 64 | |
| 20260505165456 | 61 | 298 | 4.0 | 8.0 | 0.00 | 0.00 | 0.00 | 66 | |
| 20260505165256 | 60 | 274 | 4.0 | 7.0 | 0.00 | 0.00 | 0.00 | 67 | |
| 20260505165054 | 60 | 272 | 0.0 | 7.0 | 0.00 | 0.00 | 0.00 | 67 | |
| 20260505164852 | 60 | 277 | 6.0 | 7.0 | 0.00 | 0.00 | 0.00 | 67 | |
| 20260505164650 | 60 | 282 | 0.0 | 8.0 | 0.00 | 0.00 | 0.00 | 67 | |
| 20260505164447 | 60 | 310 | 5.0 | 8.0 | 0.00 | 0.00 | 0.00 | 67 | |
| 20260505164247 | 59 | 282 | 3.0 | 9.0 | 0.00 | 0.00 | 0.00 | 68 | |
| 20260505163843 | 59 | 267 | 6.0 | 9.0 | 0.00 | 0.00 | 0.00 | 68 | |
| 20260505163641 | 59 | 277 | 3.0 | 7.0 | 0.00 | 0.00 | 0.00 | 69 | |
| 20260505163437 | 59 | 254 | 2.0 | 7.0 | 0.00 | 0.00 | 0.00 | 69 | |
| 20260505163238 | 58 | 291 | 5.0 | 8.0 | 0.00 | 0.00 | 0.00 | 67 | |
| 20260505163035 | 59 | 302 | 4.0 | 8.0 | 0.00 | 0.00 | 0.00 | 67 | |
| 20260505162631 | 59 | 271 | 4.0 | 4.0 | 0.00 | 0.00 | 0.00 | 68 | |
| 20260505162429 | 59 | 334 | 3.0 | 4.0 | 0.00 | 0.00 | 0.00 | 70 | |
| 20260505162227 | 60 | 272 | 0.0 | 7.0 | 0.00 | 0.00 | 0.00 | 70 | |
| 20260505162026 | 60 | 298 | 2.0 | 7.0 | 0.00 | 0.00 | 0.00 | 70 | |
| 20260505161824 | 60 | 313 | 1.0 | 7.0 | 0.00 | 0.00 | 0.00 | 69 | |
| 20260505161622 | 60 | 261 | 1.0 | 5.0 | 0.00 | 0.00 | 0.00 | 69 | |
| 20260505161218 | 60 | 255 | 1.0 | 2.0 | 0.00 | 0.00 | 0.00 | 72 | |
| 20260505160814 | 59 | 99 | 0.0 | 4.0 | 0.00 | 0.00 | 0.00 | 74 | |
| 20260505160613 | 59 | 306 | 1.0 | 4.0 | 0.00 | 0.00 | 0.00 | 73 | |
| 20260505160410 | 59 | 277 | 0.0 | 4.0 | 0.00 | 0.00 | 0.00 | 73 | |
| 20260505160209 | 59 | 281 | 0.0 | 4.0 | 0.00 | 0.00 | 0.00 | 72 | |
| 20260505153139 | 58 | 188 | 1.0 | 2.0 | 0.00 | 0.00 | 0.00 | 76 | |
| 20260505152938 | 58 | 151 | 1.0 | 2.0 | 0.00 | 0.00 | 0.00 | 76 | |
| 20260505152736 | 58 | 113 | 0.0 | 2.0 | 0.00 | 0.00 | 0.00 | 78 | |
| 20260505152534 | 58 | 149 | 1.0 | 2.0 | 0.00 | 0.00 | 0.00 | 79 | |
| 20260505152332 | 57 | 143 | 0.0 | 2.0 | 0.00 | 0.00 | 0.00 | 80 | |
| 20260505152130 | 57 | 132 | 1.0 | 3.0 | 0.00 | 0.00 | 0.00 | 81 | |
| 20260505151929 | 57 | 81 | 0.0 | 3.0 | 0.00 | 0.00 | 0.00 | 80 | |
| 20260505151727 | 57 | 85 | 1.0 | 0.0 | 0.00 | 0.00 | 0.00 | 80 | |
| 20260505151323 | 56 | 102 | 0.0 | 0.0 | 0.00 | 0.00 | 0.00 | 81 | |
| 20260505150919 | 56 | 102 | 0.0 | 1.0 | 0.00 | 0.00 | 0.00 | 81 | |
| 20260505150717 | 56 | 102 | 0.0 | 3.0 | 0.00 | 0.00 | 0.00 | 80 | |
| 20260505150515 | 56 | 102 | 0.0 | 3.0 | 0.00 | 0.00 | 0.00 | 80 | |
| 20260505150311 | 56 | 115 | 1.0 | 2.0 | 0.00 | 0.00 | 0.00 | 79 | |
| 20260505150111 | 56 | 42 | 0.0 | 2.0 | 0.00 | 0.00 | 0.00 | 79 | |
| 20260505140620 | 52 | 118 | 1.0 | 5.0 | 0.00 | 0.00 | 0.00 | 87 | |
| 20260505140418 | 52 | 118 | 0.0 | 5.0 | 0.00 | 0.00 | 0.00 | 87 | |
| 20260505140216 | 52 | 125 | 2.0 | 4.0 | 0.00 | 0.00 | 0.00 | 87 | |
| 20260505124909 | 51 | 265 | 0.0 | 0.0 | 0.00 | 0.00 | 0.00 | 89 | |
| 20260505124504 | 51 | 265 | 0.0 | 0.0 | 0.00 | 0.00 | 0.00 | 89 | |
| 20260505124100 | 51 | 265 | 0.0 | 0.0 | 0.00 | 0.00 | 0.00 | 89 | |
| 20260505123858 | 51 | 265 | 0.0 | 0.0 | 0.00 | 0.00 | 0.00 | 89 | |
| 20260505123656 | 51 | 265 | 0.0 | 0.0 | 0.00 | 0.00 | 0.00 | 89 | |
| 20260505123454 | 51 | 265 | 0.0 | 0.0 | 0.00 | 0.00 | 0.00 | 90 | |
| 20260505123252 | 51 | 265 | 0.0 | 0.0 | 0.00 | 0.00 | 0.00 | 90 | |
| 20260505123050 | 51 | 265 | 0.0 | 0.0 | 0.00 | 0.00 | 0.00 | 89 | |
| 20260505122849 | 51 | 265 | 0.0 | 0.0 | 0.00 | 0.00 | 0.00 | 90 | |
| 20260505122647 | 51 | 265 | 0.0 | 0.0 | 0.00 | 0.00 | 0.00 | 90 | |
| 20260505122444 | 51 | 265 | 0.0 | 0.0 | 0.00 | 0.00 | 0.00 | 89 | |
| 20260505122243 | 51 | 265 | 0.0 | 0.0 | 0.00 | 0.00 | 0.00 | 90 | |
| 20260505121839 | 51 | 265 | 0.0 | 0.0 | 0.00 | 0.00 | 0.00 | 90 | |
| 20260505121637 | 51 | 265 | 0.0 | 0.0 | 0.00 | 0.00 | 0.00 | 90 | |
| 20260505121435 | 51 | 265 | 0.0 | 0.0 | 0.00 | 0.00 | 0.00 | 90 | |
| 20260505121233 | 51 | 265 | 0.0 | 0.0 | 0.00 | 0.00 | 0.00 | 90 | |
| 20260505121031 | 51 | 265 | 0.0 | 0.0 | 0.00 | 0.00 | 0.00 | 90 | |
| 20260505120628 | 51 | 265 | 0.0 | 0.0 | 0.00 | 0.00 | 0.00 | 89 | |
| 20260505120426 | 51 | 265 | 0.0 | 0.0 | 0.00 | 0.00 | 0.00 | 89 | |
| 20260505120224 | 51 | 265 | 0.0 | 0.0 | 0.00 | 0.00 | 0.00 | 89 | |
| 20260505120020 | 51 | 265 | 0.0 | 0.0 | 0.00 | 0.00 | 0.00 | 89 | |
| 20260505115820 | 51 | 265 | 0.0 | 0.0 | 0.00 | 0.00 | 0.00 | 89 | |
| 20260505115618 | 51 | 265 | 0.0 | 0.0 | 0.00 | 0.00 | 0.00 | 89 | |
| 20260505115415 | 51 | 265 | 0.0 | 0.0 | 0.00 | 0.00 | 0.00 | 90 | |
| 20260505115214 | 51 | 265 | 0.0 | 0.0 | 0.00 | 0.00 | 0.00 | 90 | |
| 20260505115012 | 51 | 265 | 0.0 | 0.0 | 0.00 | 0.00 | 0.00 | 89 | |
| 20260505114810 | 51 | 265 | 0.0 | 0.0 | 0.00 | 0.00 | 0.00 | 89 | |
| 20260505114609 | 51 | 265 | 0.0 | 0.0 | 0.00 | 0.00 | 0.00 | 89 | |
| 20260505114407 | 51 | 265 | 0.0 | 0.0 | 0.00 | 0.00 | 0.00 | 89 | |
| 20260505114205 | 51 | 265 | 0.0 | 0.0 | 0.00 | 0.00 | 0.00 | 89 | |
| 20260505114003 | 51 | 265 | 0.0 | 0.0 | 0.00 | 0.00 | 0.00 | 89 | |
| 20260505113801 | 51 | 265 | 0.0 | 0.0 | 0.00 | 0.00 | 0.00 | 89 | |
| 20260505113559 | 51 | 265 | 0.0 | 0.0 | 0.00 | 0.00 | 0.00 | 89 | |
| 20260505113357 | 51 | 265 | 0.0 | 0.0 | 0.00 | 0.00 | 0.00 | 89 | |
| 20260505113155 | 51 | 265 | 0.0 | 0.0 | 0.00 | 0.00 | 0.00 | 89 | |
| 20260505112953 | 51 | 265 | 0.0 | 0.0 | 0.00 | 0.00 | 0.00 | 89 | |
| 20260505112751 | 51 | 265 | 0.0 | 0.0 | 0.00 | 0.00 | 0.00 | 89 | |
| 20260505112549 | 51 | 265 | 0.0 | 0.0 | 0.00 | 0.00 | 0.00 | 89 | |
| 20260505112348 | 52 | 265 | 0.0 | 0.0 | 0.00 | 0.00 | 0.00 | 89 | |
| 20260505111943 | 52 | 265 | 0.0 | 0.0 | 0.00 | 0.00 | 0.00 | 88 | |
| 20260505111742 | 52 | 265 | 0.0 | 0.0 | 0.00 | 0.00 | 0.00 | 88 | |
| 20260505111540 | 52 | 265 | 0.0 | 0.0 | 0.00 | 0.00 | 0.00 | 88 | |
| 20260505111338 | 52 | 265 | 0.0 | 0.0 | 0.00 | 0.00 | 0.00 | 89 | |
| 20260505111134 | 52 | 265 | 0.0 | 0.0 | 0.00 | 0.00 | 0.00 | 89 | |
| 20260505110934 | 52 | 265 | 0.0 | 0.0 | 0.00 | 0.00 | 0.00 | 88 | |
| 20260505110733 | 52 | 265 | 0.0 | 0.0 | 0.00 | 0.00 | 0.00 | 88 | |
| 20260505110530 | 52 | 265 | 0.0 | 0.0 | 0.00 | 0.00 | 0.00 | 88 | |
| 20260505110329 | 52 | 265 | 0.0 | 0.0 | 0.00 | 0.00 | 0.00 | 88 | |
| 20260505110127 | 52 | 265 | 0.0 | 0.0 | 0.00 | 0.00 | 0.00 | 87 | |
| 20260505102049 | 53 | 265 | 0.0 | 0.0 | 0.00 | 0.00 | 0.00 | 86 | |
| 20260505101845 | 53 | 265 | 0.0 | 0.0 | 0.00 | 0.00 | 0.00 | 86 | |
| 20260505101645 | 54 | 265 | 0.0 | 0.0 | 0.00 | 0.00 | 0.00 | 86 | |
| 20260505101443 | 53 | 265 | 0.0 | 0.0 | 0.00 | 0.00 | 0.00 | 86 | |
| 20260505101241 | 54 | 265 | 0.0 | 0.0 | 0.00 | 0.00 | 0.00 | 86 | |
| 20260505101039 | 53 | 265 | 0.0 | 0.0 | 0.00 | 0.00 | 0.00 | 86 | |
| 20260505100837 | 54 | 265 | 0.0 | 0.0 | 0.00 | 0.00 | 0.00 | 86 | |
| 20260505100635 | 54 | 265 | 0.0 | 0.0 | 0.00 | 0.00 | 0.00 | 86 | |
| 20260505100433 | 54 | 265 | 0.0 | 0.0 | 0.00 | 0.00 | 0.00 | 86 | |
| 20260505100231 | 54 | 265 | 0.0 | 0.0 | 0.00 | 0.00 | 0.00 | 86 | |
| 20260505100030 | 54 | 265 | 0.0 | 0.0 | 0.00 | 0.00 | 0.00 | 86 | |
| 20260505095827 | 54 | 265 | 0.0 | 0.0 | 0.00 | 0.00 | 0.00 | 86 | |
| 20260505095626 | 54 | 265 | 0.0 | 0.0 | 0.00 | 0.00 | 0.00 | 86 | |
| 20260505095424 | 54 | 265 | 0.0 | 0.0 | 0.00 | 0.00 | 0.00 | 86 | |
| 20260505095222 | 54 | 265 | 0.0 | 0.0 | 0.00 | 0.00 | 0.00 | 86 | |
| 20260505095018 | 54 | 265 | 0.0 | 0.0 | 0.00 | 0.00 | 0.00 | 86 | |
| 20260505094818 | 54 | 265 | 0.0 | 0.0 | 0.00 | 0.00 | 0.00 | 86 | |
| 20260505094412 | 54 | 265 | 0.0 | 0.0 | 0.00 | 0.00 | 0.00 | 86 | |
| 20260505094212 | 54 | 265 | 0.0 | 0.0 | 0.00 | 0.00 | 0.00 | 86 | |
| 20260505094010 | 54 | 265 | 0.0 | 0.0 | 0.00 | 0.00 | 0.00 | 86 | |
| 20260505093808 | 54 | 265 | 0.0 | 0.0 | 0.00 | 0.00 | 0.00 | 86 | |
| 20260505093607 | 54 | 265 | 0.0 | 0.0 | 0.00 | 0.00 | 0.00 | 86 | |
| 20260505093405 | 54 | 265 | 0.0 | 0.0 | 0.00 | 0.00 | 0.00 | 86 | |
| 20260505093201 | 54 | 265 | 0.0 | 0.0 | 0.00 | 0.00 | 0.00 | 86 | |
| 20260505093001 | 54 | 265 | 0.0 | 0.0 | 0.00 | 0.00 | 0.00 | 85 | |
| 20260505092759 | 54 | 265 | 0.0 | 0.0 | 0.00 | 0.00 | 0.00 | 85 | |
| 20260505092557 | 55 | 265 | 0.0 | 0.0 | 0.00 | 0.00 | 0.00 | 85 | |
| 20260505092355 | 54 | 265 | 0.0 | 0.0 | 0.00 | 0.00 | 0.00 | 85 | |
| 20260505092153 | 55 | 265 | 0.0 | 0.0 | 0.00 | 0.00 | 0.00 | 85 | |
| 20260505091951 | 55 | 265 | 0.0 | 0.0 | 0.00 | 0.00 | 0.00 | 85 | |
| 20260505091749 | 55 | 265 | 0.0 | 0.0 | 0.00 | 0.00 | 0.00 | 85 | |
| 20260505091548 | 55 | 265 | 0.0 | 0.0 | 0.00 | 0.00 | 0.00 | 85 | |
| 20260505091346 | 55 | 265 | 0.0 | 0.0 | 0.00 | 0.00 | 0.00 | 85 | |
| 20260505091143 | 55 | 265 | 0.0 | 0.0 | 0.00 | 0.00 | 0.00 | 85 | |
| 20260505090738 | 55 | 265 | 0.0 | 0.0 | 0.00 | 0.00 | 0.00 | 85 | |
| 20260505090538 | 55 | 265 | 0.0 | 0.0 | 0.00 | 0.00 | 0.00 | 85 | |
| 20260505090336 | 55 | 265 | 0.0 | 0.0 | 0.00 | 0.00 | 0.00 | 85 | |
| 20260505090134 | 55 | 265 | 0.0 | 0.0 | 0.00 | 0.00 | 0.00 | 85 | |
| 20260505085932 | 55 | 265 | 0.0 | 0.0 | 0.00 | 0.00 | 0.00 | 86 | |
| 20260505085730 | 55 | 265 | 0.0 | 0.0 | 0.00 | 0.00 | 0.00 | 86 | |
| 20260505085528 | 55 | 265 | 0.0 | 0.0 | 0.00 | 0.00 | 0.00 | 86 | |
| 20260505085326 | 55 | 265 | 0.0 | 0.0 | 0.00 | 0.00 | 0.00 | 86 | |
| 20260505085125 | 55 | 265 | 0.0 | 0.0 | 0.00 | 0.00 | 0.00 | 86 | |
| 20260505084923 | 55 | 265 | 0.0 | 0.0 | 0.00 | 0.00 | 0.00 | 86 | |
| 20260505084721 | 55 | 265 | 0.0 | 0.0 | 0.00 | 0.00 | 0.00 | 86 | |
| 20260505084519 | 55 | 265 | 0.0 | 0.0 | 0.00 | 0.00 | 0.00 | 85 | |
| 20260505084317 | 55 | 265 | 0.0 | 0.0 | 0.00 | 0.00 | 0.00 | 85 | |
| 20260505084115 | 55 | 265 | 0.0 | 0.0 | 0.00 | 0.00 | 0.00 | 85 | |
| 20260505083913 | 55 | 265 | 0.0 | 0.0 | 0.00 | 0.00 | 0.00 | 85 | |
| 20260505083711 | 55 | 265 | 0.0 | 0.0 | 0.00 | 0.00 | 0.00 | 85 | |
| 20260505083509 | 55 | 265 | 0.0 | 0.0 | 0.00 | 0.00 | 0.00 | 85 | |
| 20260505083307 | 55 | 265 | 0.0 | 0.0 | 0.00 | 0.00 | 0.00 | 85 | |
| 20260505083105 | 55 | 265 | 0.0 | 0.0 | 0.00 | 0.00 | 0.00 | 85 | |
| 20260505082904 | 55 | 265 | 0.0 | 0.0 | 0.00 | 0.00 | 0.00 | 85 | |
| 20260505082702 | 55 | 265 | 0.0 | 0.0 | 0.00 | 0.00 | 0.00 | 85 | |
| 20260505082500 | 55 | 265 | 0.0 | 0.0 | 0.00 | 0.00 | 0.00 | 85 |